• In Deutschland
  • Länderverzeichnis
  • Für 7 Tage
  • Wassertemperatur
  • Satellitenkarten
  • Wetterkarte
  • Widgets
  • user-avatar
    Anmelden

    Stündliche Wetter Lipovskaya

    Heute, 22 Juli, Sonntag

    Zeit Temperatur Niederschläge Wind Luftdruck Luftfeuchtigkeit
    00:00 +20°C° 0 mm 1 m/S 737 mmHg 94%
    01:00 +19°C° 0 mm 1 m/S 737 mmHg 94%
    02:00 +19°C° 0 mm 1 m/S 736 mmHg 96%
    03:00 +19°C° 0 mm 1 m/S 736 mmHg 96%
    04:00 +18°C° 0 mm 2 m/S 737 mmHg 96%
    05:00 +18°C° 0 mm 2 m/S 737 mmHg 96%
    06:00 +19°C° 0,2 mm 2 m/S 737 mmHg 94%
    07:00 +21°C° 0,2 mm 3 m/S 737 mmHg 92%
    08:00 +22°C° 0,2 mm 3 m/S 737 mmHg 89%
    09:00 +22°C° 0,7 mm 3 m/S 737 mmHg 88%
    10:00 +23°C° 0,7 mm 4 m/S 736 mmHg 87%
    11:00 +23°C° 0,7 mm 5 m/S 736 mmHg 86%
    12:00 +23°C° 0,4 mm 5 m/S 736 mmHg 86%
    13:00 +23°C° 0,4 mm 4 m/S 736 mmHg 86%
    14:00 +23°C° 0,4 mm 4 m/S 736 mmHg 86%
    15:00 +22°C° 0 mm 4 m/S 736 mmHg 87%
    16:00 +22°C° 0 mm 4 m/S 736 mmHg 88%
    17:00 +22°C° 0 mm 4 m/S 736 mmHg 88%
    18:00 +21°C° 0 mm 4 m/S 736 mmHg 89%
    19:00 +21°C° 0 mm 4 m/S 736 mmHg 90%
    20:00 +20°C° 0 mm 3 m/S 737 mmHg 90%
    21:00 +20°C° 0 mm 3 m/S 737 mmHg 91%
    22:00 +20°C° 0 mm 3 m/S 737 mmHg 91%
    23:00 +20°C° 0 mm 3 m/S 737 mmHg 91%

    Morgen, 23 Juli, Montag

    Zeit Temperatur Niederschläge Wind Luftdruck Luftfeuchtigkeit
    00:00 +19°C° 0 mm 4 m/S 737 mmHg 92%
    01:00 +19°C° 0 mm 4 m/S 737 mmHg 93%
    02:00 +19°C° 0 mm 4 m/S 737 mmHg 94%
    03:00 +19°C° 0 mm 4 m/S 737 mmHg 93%
    04:00 +19°C° 0 mm 4 m/S 737 mmHg 93%
    05:00 +19°C° 0 mm 4 m/S 737 mmHg 93%
    06:00 +19°C° 0 mm 4 m/S 737 mmHg 92%
    07:00 +19°C° 0 mm 4 m/S 737 mmHg 91%
    08:00 +20°C° 0 mm 4 m/S 737 mmHg 91%
    09:00 +20°C° 0,1 mm 4 m/S 737 mmHg 89%
    10:00 +20°C° 0,1 mm 4 m/S 737 mmHg 88%
    11:00 +21°C° 0,1 mm 4 m/S 738 mmHg 86%
    12:00 +21°C° 0,1 mm 4 m/S 738 mmHg 85%
    13:00 +22°C° 0,1 mm 5 m/S 738 mmHg 83%
    14:00 +22°C° 0,1 mm 5 m/S 738 mmHg 81%
    15:00 +22°C° 0,1 mm 5 m/S 738 mmHg 82%
    16:00 +21°C° 0,1 mm 5 m/S 737 mmHg 84%
    17:00 +21°C° 0,1 mm 5 m/S 737 mmHg 86%
    18:00 +20°C° 0 mm 4 m/S 738 mmHg 87%
    19:00 +19°C° 0 mm 4 m/S 738 mmHg 89%
    20:00 +18°C° 0 mm 3 m/S 738 mmHg 91%
    21:00 +18°C° 0 mm 3 m/S 738 mmHg 92%
    22:00 +18°C° 0 mm 3 m/S 738 mmHg 93%
    23:00 +17°C° 0 mm 3 m/S 738 mmHg 94%

    übermorgen, 24 Juli, Dienstag

    Zeit Temperatur Niederschläge Wind Luftdruck Luftfeuchtigkeit
    00:00 +17°C° 0 mm 3 m/S 738 mmHg 94%
    01:00 +17°C° 0 mm 3 m/S 738 mmHg 94%
    02:00 +18°C° 0 mm 3 m/S 738 mmHg 94%
    03:00 +18°C° 0,1 mm 3 m/S 738 mmHg 94%
    04:00 +18°C° 0,1 mm 3 m/S 738 mmHg 95%
    05:00 +18°C° 0,1 mm 3 m/S 738 mmHg 95%
    06:00 +18°C° 0,4 mm 3 m/S 738 mmHg 95%
    07:00 +19°C° 0,4 mm 3 m/S 738 mmHg 95%
    08:00 +19°C° 0,4 mm 3 m/S 738 mmHg 95%
    09:00 +20°C° 0,3 mm 3 m/S 738 mmHg 93%
    10:00 +21°C° 0,3 mm 3 m/S 738 mmHg 92%
    11:00 +21°C° 0,3 mm 3 m/S 738 mmHg 90%
    12:00 +22°C° 0,6 mm 3 m/S 738 mmHg 89%
    13:00 +24°C° 0,6 mm 3 m/S 738 mmHg 87%
    14:00 +25°C° 0,6 mm 3 m/S 738 mmHg 85%
    15:00 +25°C° 0,7 mm 3 m/S 739 mmHg 86%
    16:00 +25°C° 0,7 mm 3 m/S 739 mmHg 86%
    17:00 +25°C° 0,7 mm 3 m/S 739 mmHg 86%
    18:00 +24°C° 0,2 mm 3 m/S 739 mmHg 89%
    19:00 +22°C° 0,2 mm 3 m/S 739 mmHg 91%
    20:00 +21°C° 0,2 mm 3 m/S 739 mmHg 94%
    21:00 +21°C° 0,1 mm 3 m/S 739 mmHg 94%
    22:00 +20°C° 0,1 mm 3 m/S 739 mmHg 94%
    23:00 +20°C° 0,1 mm 3 m/S 740 mmHg 94%

    25 Juli, Mittwoch

    Zeit Temperatur Niederschläge Wind Luftdruck Luftfeuchtigkeit
    00:00 +19°C° 0,3 mm 3 m/S 740 mmHg 94%
    01:00 +19°C° 0,3 mm 3 m/S 740 mmHg 95%
    02:00 +18°C° 0,3 mm 3 m/S 740 mmHg 95%
    03:00 +18°C° 0,2 mm 3 m/S 740 mmHg 96%
    04:00 +19°C° 0,2 mm 3 m/S 740 mmHg 97%
    05:00 +19°C° 0,2 mm 3 m/S 740 mmHg 97%
    06:00 +19°C° 0 mm 4 m/S 741 mmHg 94%
    07:00 +20°C° 0 mm 4 m/S 741 mmHg 91%
    08:00 +20°C° 0 mm 4 m/S 741 mmHg 88%
    09:00 +20°C° 0,3 mm 4 m/S 741 mmHg 88%
    10:00 +20°C° 0,3 mm 4 m/S 741 mmHg 87%
    11:00 +20°C° 0,3 mm 4 m/S 741 mmHg 87%
    12:00 +20°C° 0,2 mm 4 m/S 741 mmHg 88%
    13:00 +20°C° 0,2 mm 3 m/S 741 mmHg 89%
    14:00 +20°C° 0,2 mm 3 m/S 741 mmHg 89%
    15:00 +21°C° 0,1 mm 3 m/S 741 mmHg 88%
    16:00 +21°C° 0,1 mm 3 m/S 741 mmHg 87%
    17:00 +22°C° 0,1 mm 3 m/S 741 mmHg 86%
    18:00 +21°C° 0 mm 3 m/S 741 mmHg 89%
    19:00 +21°C° 0 mm 2 m/S 741 mmHg 92%
    20:00 +20°C° 0 mm 2 m/S 741 mmHg 95%
    21:00 +20°C° 0 mm 2 m/S 742 mmHg 96%
    22:00 +19°C° 0 mm 2 m/S 742 mmHg 96%
    23:00 +19°C° 0 mm 2 m/S 742 mmHg 97%

    26 Juli, Donnerstag

    Zeit Temperatur Niederschläge Wind Luftdruck Luftfeuchtigkeit
    00:00 +19°C° 0 mm 3 m/S 742 mmHg 97%
    01:00 +19°C° 0 mm 3 m/S 742 mmHg 96%
    02:00 +19°C° 0 mm 3 m/S 743 mmHg 96%
    03:00 +18°C° 0 mm 3 m/S 743 mmHg 96%
    04:00 +18°C° 0 mm 3 m/S 743 mmHg 96%
    05:00 +18°C° 0 mm 3 m/S 743 mmHg 95%
    06:00 +19°C° 0 mm 3 m/S 743 mmHg 91%
    07:00 +21°C° 0 mm 3 m/S 743 mmHg 86%
    08:00 +22°C° 0 mm 4 m/S 743 mmHg 81%
    09:00 +25°C° 0 mm 4 m/S 744 mmHg 74%
    10:00 +26°C° 0 mm 4 m/S 744 mmHg 67%
    11:00 +28°C° 0 mm 4 m/S 744 mmHg 60%
    12:00 +28°C° 0 mm 5 m/S 744 mmHg 61%
    13:00 +28°C° 0 mm 5 m/S 744 mmHg 61%
    14:00 +29°C° 0 mm 5 m/S 744 mmHg 62%
    15:00 +28°C° 0 mm 4 m/S 744 mmHg 64%
    16:00 +28°C° 0 mm 4 m/S 744 mmHg 66%
    17:00 +28°C° 0 mm 4 m/S 744 mmHg 69%
    18:00 +26°C° 0,1 mm 4 m/S 744 mmHg 73%
    19:00 +24°C° 0,1 mm 3 m/S 744 mmHg 78%
    20:00 +22°C° 0,1 mm 3 m/S 744 mmHg 83%
    21:00 +21°C° 0 mm 3 m/S 745 mmHg 85%
    22:00 +20°C° 0 mm 3 m/S 745 mmHg 88%
    23:00 +20°C° 0 mm 3 m/S 745 mmHg 91%

    27 Juli, Freitag

    Zeit Temperatur Niederschläge Wind Luftdruck Luftfeuchtigkeit
    00:00 +19°C° 0,3 mm 3 m/S 745 mmHg 92%
    01:00 +19°C° 0,3 mm 3 m/S 745 mmHg 93%
    02:00 +19°C° 0,3 mm 3 m/S 745 mmHg 95%
    03:00 +19°C° 0,3 mm 3 m/S 745 mmHg 94%
    04:00 +19°C° 0,3 mm 3 m/S 745 mmHg 93%
    05:00 +20°C° 0,3 mm 4 m/S 746 mmHg 92%
    06:00 +21°C° 0 mm 4 m/S 746 mmHg 88%
    07:00 +22°C° 0 mm 4 m/S 746 mmHg 84%
    08:00 +25°C° 0 mm 5 m/S 746 mmHg 80%
    09:00 +26°C° 0,1 mm 5 m/S 746 mmHg 76%
    10:00 +27°C° 0,1 mm 5 m/S 746 mmHg 71%
    11:00 +28°C° 0,1 mm 5 m/S 746 mmHg 67%
    12:00 +29°C° 0,1 mm 5 m/S 746 mmHg 65%
    13:00 +29°C° 0,1 mm 5 m/S 746 mmHg 64%
    14:00 +30°C° 0,1 mm 4 m/S 746 mmHg 62%
    15:00 +29°C° 0 mm 4 m/S 746 mmHg 64%
    16:00 +29°C° 0 mm 4 m/S 746 mmHg 65%
    17:00 +29°C° 0 mm 4 m/S 746 mmHg 67%
    18:00 +27°C° 0 mm 4 m/S 746 mmHg 71%
    19:00 +26°C° 0 mm 4 m/S 747 mmHg 75%
    20:00 +24°C° 0 mm 3 m/S 747 mmHg 80%
    21:00 +22°C° 0 mm 3 m/S 747 mmHg 82%
    22:00 +21°C° 0 mm 3 m/S 747 mmHg 84%
    23:00 +20°C° 0 mm 3 m/S 747 mmHg 87%
    Mehr zeigen